Location: Paderno d�Adda
(45.6667°N, 9.4333°E)
Time: 01:22:26
(UTC+00:00)

ATLAS 3B R/B - Pass Details

Date: 19 September 2020
Orbit: 1016 x 1179 km, 63.8° (Epoch: 04 October)

Event Time Altitude Azimuth Distance (km) Brightness Sun altitude
Rises 18:44:12 0° 319° (NW) 3,802 6.6 -14.4°
Reaches altitude 10° 18:47:23 10° 333° (NNW) 2,869 5.6 -15.0°
Maximum altitude 18:52:47 24° 26° (NNE) 2,044 4.1 -15.9°
Enters shadow 18:56:55 15° 70° (ENE) 2,601 4.3 -16.6°
